Overview Statistics Trail Chart Weather Telemetry Raw packets
 

This is the latest recevied weather packets stored in our database for station/object 1NW106. If no packets are shown the sender has not sent any weather packets the latest 10 day(s).

<< 20 21 22 23 24 25 26 >>
Time Temp. Humidity Pressure Rain* Wind** Luminosity Snow
1788088172 25.56° C 99% 1006 hPa 33.78 mm - - -
1788087572 26.11° C 99% 1006 hPa 33.78 mm - - -
1788086972 26.11° C 99% 1005.9 hPa 33.78 mm - - -
1788086372 26.11° C 99% 1005.9 hPa 33.78 mm - - -
1788085772 26.11° C 98% 1006.1 hPa 33.78 mm - - -
1788085173 26.67° C 97% 1006.2 hPa 33.78 mm - - -
1788084572 27.22° C 97% 1006.1 hPa 33.78 mm - - -
1788083972 27.22° C 95% 1006.4 hPa 33.78 mm - - -
1788083372 27.22° C 95% 1006.5 hPa 33.78 mm - - -
1788082773 27.22° C 94% 1006.5 hPa 33.78 mm - - -
1788082172 27.78° C 94% 1006.6 hPa 33.78 mm - - -
1788081572 27.78° C 93% 1006.7 hPa 33.78 mm - - -
1788080972 27.78° C 94% 1006.6 hPa 33.78 mm - - -
1788080372 27.78° C 94% 1006.6 hPa 33.78 mm - - -
1788079772 27.22° C 93% 1006.8 hPa 33.78 mm - - -
1788079172 27.78° C 96% 1006.6 hPa 33.78 mm - - -
1788078572 27.78° C 95% 1006.7 hPa 33.78 mm - - -
1788077972 27.78° C 94% 1007 hPa 33.78 mm - - -
1788077372 27.78° C 93% 1007.2 hPa 33.78 mm - - -
1788076772 27.78° C 94% 1007.4 hPa 33.78 mm - - -
1788076172 27.78° C 94% 1007.2 hPa 33.78 mm - - -
1788075572 27.78° C 95% 1007.3 hPa 33.78 mm - - -
1788074972 27.78° C 95% 1007.3 hPa 33.78 mm - - -
1788074372 27.22° C 97% 1007.1 hPa 33.78 mm - - -
1788073772 27.22° C 96% 1007.3 hPa 33.78 mm - - -

* Rain latest hour (hover to see other rain measurements)
** Current wind speed in m/s (hover to see current wind gust speed)